This is the latest recevied weather packets stored in our database for station/object N9GKE-1. If no packets are shown the sender has not sent any weather packets the latest 10 day(s).
| Time | Temp. | Humidity | Pressure | Rain* | Wind** | Luminosity | Snow |
|---|---|---|---|---|---|---|---|
| 1778100695 | 13.89° C | 50% | 1014 hPa | 0 mm | - | - | - |
| 1778100096 | 13.89° C | 52% | 1014 hPa | 0 mm | - | - | - |
| 1778099494 | 13.89° C | 50% | 1014.2 hPa | 0 mm | - | - | - |
| 1778098895 | 14.44° C | 48% | 1014.3 hPa | 0 mm | - | - | - |
| 1778098295 | 14.44° C | 51% | 1014.4 hPa | 0 mm | - | - | - |
| 1778097698 | 13.89° C | 51% | 1014.4 hPa | 0 mm | - | - | - |
| 1778097095 | 14.44° C | 46% | 1014.4 hPa | 0 mm | - | - | - |
| 1778096495 | 14.44° C | 47% | 1014.3 hPa | 0 mm | - | - | - |
| 1778095895 | 14.44° C | 45% | 1014.4 hPa | 0 mm | - | - | - |
| 1778095296 | 14.44° C | 44% | 1014.4 hPa | 0 mm | - | - | - |
| 1778094696 | 13.89° C | 45% | 1014.5 hPa | 0 mm | - | - | - |
| 1778094095 | 13.33° C | 54% | 1014.5 hPa | 0 mm | - | - | - |
| 1778093494 | 13.33° C | 54% | 1014.5 hPa | 0 mm | - | - | - |
| 1778092895 | 13.33° C | 52% | 1014.6 hPa | 0 mm | - | - | - |
| 1778092296 | 13.33° C | 52% | 1014.5 hPa | 0 mm | - | - | - |
| 1778091695 | 12.78° C | 55% | 1014.4 hPa | 0 mm | - | - | - |
| 1778091094 | 13.33° C | 58% | 1014.4 hPa | 0 mm | - | - | - |
| 1778090495 | 13.33° C | 57% | 1014.4 hPa | 0 mm | - | - | - |
| 1778089895 | 13.33° C | 57% | 1014.5 hPa | 0 mm | - | - | - |
| 1778089294 | 13.33° C | 59% | 1014.6 hPa | 0 mm | - | - | - |
| 1778088695 | 13.33° C | 59% | 1014.6 hPa | 0 mm | - | - | - |
| 1778088094 | 13.33° C | 54% | 1014.7 hPa | 0 mm | - | - | - |
| 1778087497 | 13.33° C | 55% | 1014.7 hPa | 0 mm | - | - | - |
| 1778086895 | 13.33° C | 59% | 1014.3 hPa | 0 mm | - | - | - |
| 1778086294 | 12.78° C | 56% | 1014.3 hPa | 0 mm | - | - | - |
* Rain latest hour (hover to see other rain measurements)
** Current wind speed in m/s (hover to see current wind gust speed)